Location: Greenwich
(51.4790°N, 0.0090°E)
Time: 23:59:07
(UTC+01:00)

Vanguard 3 - Pass Details

Date: 21 April 2024
Orbit: 509 x 3232 km, 33.3° (Epoch: 26 May)

Event Time Altitude Azimuth Distance (km) Brightness Sun altitude
Exits shadow 03:03:12 12° 174° (S) 5,060 10.7 -21.0°
Maximum altitude 03:07:54 15° 154° (SSE) 4,486 10.6 -20.6°
Drops below altitude 10° 03:13:40 10° 126° (SE) 4,318 10.8 -20.1°
Sets 03:18:34 0° 104° (ESE) 4,769 11.4 -19.7°
